Wind_Speed
22 22 22 22 22 22 23 24 24 22 22 22 24 25 25 25 25 25 25 25 26 26 27 27 28 28 29 31 32 33 34 36 36 36 37 39 39 40 41 42 42 43 43 43
23 23 23 23 23 23 24 24 24 23 22 23 24 25 25 25 25 25 25 25 25 26 26 26 27 28 28 29 30 31 32 33 34 35 36 37 38 38 39 40 40 41 41 41
24 24 25 24 23 24 24 24 24 24 22 23 24 24 24 25 24 24 25 25 26 26 27 27 27 27 28 28 29 29 30 31 32 33 33 34 35 36 36 36 37 37 38 39
24 24 26 24 24 24 24 23 23 23 23 23 24 24 24 24 24 24 25 25 26 26 26 27 27 27 27 27 28 28 29 30 30 31 31 32 32 32 33 33 34 34 34 35
24 25 25 24 24 24 24 22 22 22 22 23 24 24 25 25 25 25 25 25 26 26 26 26 26 26 26 27 27 27 28 28 29 29 28 29 30 30 30 31 31 31 31 31
24 25 24 23 23 23 23 22 21 22 22 22 23 23 24 24 24 25 25 26 26 26 26 26 25 25 26 27 27 26 27 27 27 27 28 28 27 27 27 27 27 28 28 29
23 24 23 23 22 22 22 21 21 22 22 22 23 23 23 23 24 24 25 25 25 25 25 25 25 25 25 25 25 25 25 26 26 26 26 25 25 25 24 25 25 25 26 26
23 24 22 22 22 21 21 20 20 21 21 22 23 23 23 23 23 24 24 24 24 23 24 24 24 24 23 23 23 24 24 23 23 24 24 24 24 24 24 23 24 24 24 24
23 22 22 22 21 20 19 19 20 21 21 22 22 22 22 22 23 23 22 22 22 22 22 22 22 22 22 22 22 22 21 22 22 23 23 23 23 23 22 22 23 23 22 22
21 20 20 20 20 19 19 19 20 21 21 21 21 22 22 22 22 21 21 21 21 20 20 21 21 21 20 20 20 21 21 21 21 21 22 21 21 21 21 21 21 21 21 21
21 20 20 20 20 19 19 20 21 21 21 21 21 21 21 20 20 20 21 20 19 19 19 19 19 19 19 20 20 21 21 21 20 20 20 20 20 20 20 19 19 20 20 21
21 20 21 20 20 20 21 21 21 21 21 21 20 20 19 19 20 20 20 19 18 18 17 18 18 19 19 20 20 20 20 20 19 19 20 20 20 20 20 20 20 20 20 21
20 21 21 20 20 20 20 21 21 22 21 20 20 20 19 19 19 19 19 18 17 17 17 17 18 19 19 19 19 18 18 18 18 18 19 19 20 20 20 20 20 20 20 20
19 19 19 19 19 19 20 20 21 20 20 20 20 19 19 19 19 18 17 16 16 15 16 16 17 17 17 17 17 17 17 17 17 17 18 18 19 20 20 20 20 20 19 18
17 17 17 17 18 18 19 20 20 20 19 19 19 18 18 17 17 17 16 15 15 15 15 16 16 16 16 16 16 16 16 16 16 16 17 18 18 18 19 18 18 17 16 15
17 17 18 18 18 19 19 19 19 19 18 18 17 17 16 16 16 16 15 14 14 14 15 15 15 15 16 16 15 15 15 15 15 16 17 17 17 17 17 16 15 14 14 14
17 17 17 18 18 19 18 18 17 16 16 16 15 15 15 15 15 14 13 13 13 13 14 14 14 15 15 15 15 15 14 15 16 16 17 17 16 16 15 14 13 12 12 12
16 16 16 16 16 16 16 16 15 15 14 14 14 14 14 13 13 13 13 12 12 13 13 13 14 14 14 14 13 14 14 15 16 16 16 16 15 14 13 12 11 11 10 10
16 16 16 16 15 15 15 15 15 14 13 13 13 13 12 12 12 12 12 12 12 12 12 13 14 14 14 14 14 14 14 15 15 15 15 14 13 13 12 11 11 10 10 10
16 16 16 16 15 15 15 15 14 13 13 13 12 12 12 12 12 11 11 11 11 11 12 13 14 14 14 14 13 13 13 13 12 12 12 12 12 11 11 10 10 9 9 8
14 15 15 15 15 15 15 14 14 13 13 12 12 11 11 11 11 10 10 10 11 11 12 13 14 14 14 13 13 12 12 11 11 11 11 11 11 11 10 9 9 9 9 8
13 13 13 13 13 13 13 13 13 13 12 12 12 11 11 11 10 10 10 10 11 12 12 13 13 13 12 12 12 12 11 11 11 11 11 12 11 11 10 9 9 9 8 8
12 12 12 12 12 11 12 12 12 12 12 11 11 10 10 10 10 10 10 10 11 12 12 12 12 12 12 11 11 12 12 11 11 11 12 12 11 10 10 9 9 8 8 8
11 11 11 11 11 11 11 11 11 11 10 10 10 10 10 10 10 10 11 11 11 11 11 12 12 11 11 11 12 12 12 12 12 12 11 11 10 10 9 9 8 8 8 8
11 10 10 10 10 10 10 10 10 10 10 10 10 10 10 10 10 10 10 10 10 10 11 11 11 11 11 12 12 12 12 12 11 11 10 9 9 8 8 8 8 8 8 8
10 10 9 9 9 9 9 9 9 9 10 10 10 9 9 9 8 8 9 9 10 10 10 11 11 11 11 12 12 12 11 11 11 10 9 8 8 8 8 8 8 8 8 8
10 10 9 9 9 9 9 8 8 8 9 9 9 9 9 8 8 8 9 9 10 10 10 11 11 11 12 12 12 11 11 11 10 9 8 8 7 7 7 8 7 7 8 8
Wind_Direction
264 265 266 269 270 271 274 276 278 279 278 278 276 274 274 273 273 274 275 274 274 273 273 273 274 275 275 275 276 277 278 279 278 278 278 278 278 276 275 274 274 273 272 271
264 266 268 269 269 272 274 277 279 278 278 278 275 274 274 274 273 274 274 275 275 274 274 275 275 276 277 278 278 280 281 281 281 280 280 280 280 279 277 276 274 274 273 272
266 266 268 268 270 273 276 277 279 279 279 277 277 277 276 275 274 275 273 274 274 274 275 277 278 278 278 279 280 282 283 284 283 283 283 283 282 281 280 278 277 276 274 273
269 269 269 272 272 274 275 277 278 278 278 278 277 278 277 276 275 274 273 273 274 276 277 278 280 280 280 281 282 283 284 285 285 285 285 285 283 282 282 281 279 277 275 274
268 270 271 272 274 275 276 276 277 277 277 278 278 278 277 277 276 275 274 274 276 277 278 279 280 281 281 282 282 283 285 287 287 286 287 287 286 284 283 283 281 278 276 275
268 270 272 275 275 275 276 276 277 278 278 278 278 278 277 277 277 275 275 276 277 278 278 278 279 281 283 283 283 285 288 290 290 290 290 290 289 287 285 283 283 282 279 276
267 269 272 276 277 276 276 278 278 278 278 279 281 280 278 278 278 278 278 279 278 279 279 279 280 282 283 283 285 288 291 293 294 294 293 292 292 290 289 287 286 286 284 280
266 268 272 275 276 275 274 276 278 280 280 281 283 281 280 280 280 280 279 280 280 280 280 280 281 282 283 285 287 290 293 295 297 297 296 295 293 293 292 291 290 290 289 285
267 270 271 271 273 273 274 276 277 280 281 283 285 283 281 281 281 281 280 281 282 281 281 282 281 282 284 286 288 291 294 296 298 299 299 298 297 297 295 294 293 293 292 290
265 266 268 269 270 272 274 277 279 282 283 283 284 283 281 282 282 282 283 283 282 282 283 283 283 283 284 285 287 290 294 296 298 299 300 300 300 300 298 296 296 295 293 291
264 265 266 267 268 270 274 278 281 283 285 283 285 284 281 281 282 285 285 284 283 283 283 283 284 285 285 286 289 291 293 295 296 300 301 301 301 301 299 297 296 296 294 293
263 263 265 266 268 271 274 278 281 284 285 284 286 284 281 282 283 285 287 285 284 284 283 284 286 288 287 287 290 291 292 292 294 299 301 301 302 302 301 298 297 297 295 293
264 263 264 267 270 273 276 278 281 282 283 284 284 283 281 282 284 284 285 285 284 283 284 286 288 290 290 290 290 291 292 292 294 299 301 302 303 303 302 299 297 297 296 294
264 266 268 269 271 274 277 279 281 281 282 283 281 281 281 281 283 282 283 284 283 284 287 288 290 292 294 293 293 293 292 293 297 301 304 305 305 304 304 303 300 298 297 295
264 267 270 273 274 275 278 280 280 280 282 282 279 279 282 282 281 281 282 283 283 285 288 290 291 294 296 296 295 295 294 294 298 302 305 308 309 308 307 305 302 300 299 296
266 269 272 275 276 278 280 278 278 279 281 282 280 278 279 279 279 280 281 281 282 286 289 292 293 294 297 297 296 296 295 295 298 302 305 308 311 313 312 309 306 303 301 299
268 272 275 277 277 279 279 276 275 276 278 279 278 278 280 278 278 278 277 278 281 287 293 296 297 297 297 298 298 296 295 296 300 303 306 309 311 314 315 312 308 306 304 300
268 271 275 278 279 278 277 276 276 275 275 276 278 280 281 279 276 275 273 275 281 288 295 299 301 301 300 301 302 301 299 300 303 304 306 309 311 314 315 314 312 309 307 304
269 272 275 276 276 277 274 274 275 274 274 277 279 278 276 277 276 274 273 276 282 288 294 299 303 305 304 303 303 302 302 303 304 304 307 310 311 312 312 313 313 309 307 305
270 273 274 275 276 277 276 274 272 272 275 275 275 275 273 275 277 272 271 276 282 289 295 301 305 306 305 304 304 305 306 308 308 307 309 311 312 312 311 312 315 313 312 310
272 272 273 274 275 275 274 273 271 270 271 270 270 273 274 275 276 274 271 276 283 290 296 301 305 306 304 304 304 306 307 309 310 310 310 310 311 310 308 308 311 314 313 312
275 275 276 275 274 272 271 271 270 269 268 267 267 270 274 275 276 276 274 277 284 292 297 301 304 306 305 306 306 306 307 308 310 310 311 311 311 310 308 305 305 309 311 309
278 277 274 272 270 271 271 270 268 268 267 268 268 268 270 272 275 277 278 280 285 292 296 301 304 305 306 305 305 306 306 306 306 307 309 309 308 306 305 305 303 305 308 308
277 276 273 269 268 269 270 269 267 266 265 264 262 263 267 270 274 278 280 282 287 293 297 301 303 304 305 304 304 306 306 306 305 306 308 308 308 305 302 301 301 301 302 304
273 271 270 270 271 272 274 272 269 264 261 261 262 265 268 269 274 278 281 284 287 293 298 301 303 304 306 308 307 306 306 306 305 304 305 305 305 305 304 303 304 305 306 306
271 269 269 272 274 275 277 274 268 262 258 258 261 266 268 269 272 277 283 288 292 295 297 301 304 305 307 309 309 309 309 308 307 304 302 300 300 299 300 302 304 305 305 305
271 270 272 274 274 273 272 268 264 261 260 260 262 266 267 269 273 279 285 289 291 294 298 300 303 306 308 309 308 308 308 307 307 305 302 300 298 297 299 298 299 304 306 302
Height
5599 5599 5599 5599 5599 5598 5597 5597 5596 5596 5595 5594 5592 5590 5589 5589 5588 5588 5587 5586 5585 5585 5584 5583 5582 5581 5579 5578 5577 5575 5573 5571 5569 5567 5566 5564 5561 5559 5557 5556 5554 5553 5552 5551
5593 5593 5592 5592 5592 5591 5591 5590 5589 5588 5588 5587 5585 5583 5582 5582 5581 5580 5580 5579 5578 5577 5576 5575 5574 5572 5571 5569 5567 5565 5563 5561 5559 5557 5554 5552 5550 5548 5546 5544 5542 5540 5539 5538
5586 5586 5585 5585 5586 5585 5584 5583 5582 5581 5582 5580 5578 5577 5576 5575 5574 5573 5573 5572 5571 5570 5568 5567 5565 5564 5562 5560 5558 5556 5554 5552 5549 5547 5544 5541 5539 5536 5534 5532 5530 5528 5527 5526
5578 5579 5578 5581 5579 5578 5577 5576 5575 5574 5574 5573 5571 5570 5568 5568 5567 5566 5565 5564 5563 5562 5560 5558 5557 5555 5553 5552 5550 5548 5545 5543 5540 5537 5534 5532 5529 5526 5524 5521 5519 5518 5516 5515
5571 5570 5571 5572 5572 5570 5570 5569 5568 5567 5566 5565 5564 5563 5562 5560 5559 5558 5557 5556 5555 5553 5552 5550 5549 5547 5545 5543 5542 5540 5537 5534 5532 5529 5526 5523 5520 5517 5515 5512 5510 5508 5506 5504
5564 5563 5564 5566 5565 5563 5563 5563 5562 5560 5559 5558 5557 5556 5556 5553 5552 5551 5549 5548 5547 5545 5544 5542 5541 5539 5537 5535 5534 5531 5529 5526 5523 5520 5518 5515 5511 5509 5506 5504 5501 5499 5498 5496
5556 5556 5557 5558 5557 5556 5557 5557 5555 5553 5552 5551 5550 5549 5548 5546 5544 5543 5542 5540 5539 5537 5536 5534 5533 5531 5530 5528 5526 5524 5521 5519 5515 5512 5510 5507 5504 5501 5498 5496 5494 5492 5490 5489
5549 5549 5553 5551 5550 5550 5550 5548 5547 5546 5545 5544 5542 5541 5540 5538 5537 5535 5534 5533 5531 5530 5528 5527 5525 5524 5522 5520 5518 5516 5514 5511 5508 5505 5502 5499 5497 5494 5491 5489 5487 5485 5483 5481
5544 5546 5544 5543 5543 5543 5542 5541 5540 5539 5538 5537 5535 5534 5533 5531 5530 5528 5527 5525 5524 5522 5521 5519 5518 5516 5515 5513 5511 5509 5507 5505 5502 5499 5496 5493 5490 5487 5485 5483 5480 5478 5476 5474
5536 5537 5537 5536 5535 5535 5535 5534 5533 5533 5532 5530 5529 5527 5526 5524 5523 5521 5520 5518 5517 5516 5514 5513 5511 5510 5508 5507 5505 5503 5501 5498 5496 5493 5490 5487 5484 5481 5479 5476 5474 5472 5470 5468
5529 5530 5529 5529 5529 5529 5528 5527 5527 5526 5525 5523 5522 5520 5519 5518 5516 5515 5513 5512 5510 5509 5508 5506 5505 5503 5502 5500 5499 5497 5495 5492 5490 5487 5484 5481 5479 5476 5473 5471 5468 5466 5464 5462
5523 5523 5522 5523 5522 5522 5522 5521 5520 5519 5518 5517 5515 5514 5512 5511 5510 5509 5507 5506 5504 5503 5502 5500 5499 5498 5496 5494 5493 5491 5489 5487 5484 5482 5479 5476 5473 5470 5468 5465 5463 5461 5459 5457
5515 5515 5515 5516 5516 5515 5515 5514 5513 5512 5511 5510 5508 5507 5506 5505 5504 5502 5501 5500 5499 5498 5497 5495 5494 5492 5490 5488 5487 5485 5483 5481 5479 5477 5474 5471 5468 5466 5463 5460 5457 5455 5453 5451
5508 5508 5509 5509 5509 5508 5507 5507 5506 5505 5504 5502 5502 5501 5499 5498 5497 5496 5496 5495 5494 5493 5491 5490 5488 5487 5485 5483 5481 5480 5478 5476 5474 5472 5469 5466 5463 5461 5458 5455 5452 5449 5447 5445
5502 5502 5502 5502 5502 5501 5500 5499 5499 5498 5497 5496 5495 5494 5493 5492 5492 5491 5490 5489 5489 5488 5486 5485 5483 5482 5480 5478 5476 5475 5473 5471 5469 5467 5464 5462 5459 5456 5453 5450 5447 5444 5442 5440
5496 5496 5496 5495 5495 5494 5493 5492 5491 5491 5490 5489 5489 5488 5487 5487 5486 5485 5485 5484 5484 5483 5482 5480 5479 5477 5475 5473 5472 5470 5468 5466 5464 5462 5460 5457 5454 5451 5448 5445 5442 5440 5438 5436
5490 5490 5489 5489 5488 5487 5486 5485 5485 5484 5484 5484 5483 5483 5482 5481 5481 5480 5480 5479 5479 5478 5477 5475 5474 5472 5470 5469 5467 5465 5463 5462 5460 5458 5455 5453 5450 5447 5444 5441 5439 5436 5435 5433
5483 5483 5483 5482 5481 5480 5480 5479 5479 5479 5478 5478 5478 5477 5477 5476 5476 5476 5475 5475 5474 5473 5472 5471 5469 5468 5466 5464 5462 5461 5459 5457 5455 5453 5451 5448 5445 5443 5440 5438 5435 5433 5431 5430
5477 5477 5476 5476 5475 5474 5474 5474 5474 5473 5473 5473 5473 5472 5472 5472 5472 5471 5471 5471 5470 5469 5468 5467 5465 5464 5462 5460 5458 5456 5454 5452 5450 5448 5446 5444 5441 5439 5437 5434 5432 5430 5429 5427
5471 5471 5471 5470 5470 5469 5469 5469 5469 5469 5469 5469 5468 5468 5468 5468 5467 5467 5467 5467 5466 5465 5464 5463 5461 5459 5457 5456 5454 5452 5450 5448 5446 5444 5442 5440 5438 5435 5433 5431 5430 5428 5426 5424
5466 5466 5465 5465 5465 5464 5464 5464 5464 5464 5464 5464 5464 5464 5464 5464 5463 5463 5463 5463 5462 5461 5460 5459 5457 5455 5453 5451 5450 5448 5446 5444 5442 5440 5438 5436 5434 5432 5430 5429 5427 5425 5423 5422
5461 5460 5460 5460 5460 5460 5459 5459 5459 5459 5460 5460 5460 5460 5460 5460 5460 5459 5459 5459 5458 5457 5456 5454 5453 5451 5449 5447 5446 5444 5442 5441 5439 5437 5435 5433 5431 5429 5427 5426 5424 5423 5421 5419
5456 5456 5456 5456 5456 5455 5455 5455 5455 5456 5456 5456 5456 5456 5456 5456 5456 5456 5455 5455 5454 5453 5452 5450 5449 5447 5445 5444 5442 5440 5439 5437 5435 5433 5431 5429 5428 5426 5424 5423 5421 5420 5418 5417
5452 5451 5451 5452 5451 5451 5451 5451 5451 5452 5452 5452 5452 5452 5453 5453 5452 5452 5451 5451 5450 5449 5448 5446 5445 5443 5441 5440 5438 5437 5435 5433 5431 5430 5428 5426 5424 5423 5421 5420 5419 5417 5416 5415
5447 5448 5448 5448 5448 5448 5448 5447 5447 5448 5448 5448 5449 5449 5449 5449 5449 5448 5447 5447 5446 5445 5444 5442 5441 5439 5438 5436 5435 5433 5431 5429 5428 5426 5424 5423 5421 5420 5418 5417 5416 5415 5413 5412
5444 5444 5444 5444 5444 5444 5444 5444 5444 5444 5444 5445 5445 5445 5445 5445 5445 5444 5444 5443 5442 5441 5440 5438 5437 5436 5434 5432 5431 5429 5427 5426 5424 5423 5421 5420 5418 5417 5416 5415 5413 5412 5411 5410
5440 5440 5440 5440 5440 5440 5440 5441 5441 5441 5441 5442 5442 5442 5442 5442 5441 5441 5440 5439 5438 5437 5436 5435 5433 5432 5430 5429 5427 5425 5424 5422 5421 5419 5418 5417 5415 5414 5413 5412 5411 5409 5408 5407